Year,Month,Day,Hour,Minute,Value (Times are PST for temperature in C)
2014,07,16,00,00,18.30
2014,07,16,00,01,18.30
2014,07,16,00,02,18.30
2014,07,16,00,03,18.20
2014,07,16,00,04,18.20
2014,07,16,00,05,18.20
2014,07,16,00,06,18.10
2014,07,16,00,07,18.10
2014,07,16,00,08,18.10
2014,07,16,00,09,18.10
2014,07,16,00,10,18.10
2014,07,16,00,11,18.10
2014,07,16,00,12,18.10
2014,07,16,00,13,18.10
2014,07,16,00,14,18.10
2014,07,16,00,15,18.10
2014,07,16,00,16,18.10
2014,07,16,00,17,18.10
2014,07,16,00,18,18.10
2014,07,16,00,19,18.10
2014,07,16,00,20,18.10
2014,07,16,00,21,18.10
2014,07,16,00,22,18.10
2014,07,16,00,23,18.10
2014,07,16,00,24,18.10
2014,07,16,00,25,18.20
2014,07,16,00,26,18.20
2014,07,16,00,27,18.20
2014,07,16,00,28,18.20
2014,07,16,00,29,18.20
2014,07,16,00,30,18.20
2014,07,16,00,31,18.20
2014,07,16,00,32,18.20
2014,07,16,00,33,18.20
2014,07,16,00,34,18.20
2014,07,16,00,35,18.20
2014,07,16,00,36,18.20
2014,07,16,00,37,18.20
2014,07,16,00,38,18.10
2014,07,16,00,39,18.10
2014,07,16,00,40,18.10
2014,07,16,00,41,18.00
2014,07,16,00,42,18.00
2014,07,16,00,43,17.90
2014,07,16,00,44,17.90
2014,07,16,00,45,17.80
2014,07,16,00,46,17.80
2014,07,16,00,47,17.80
2014,07,16,00,48,17.80
2014,07,16,00,49,17.80
2014,07,16,00,50,17.70
2014,07,16,00,51,17.70
2014,07,16,00,52,17.70
2014,07,16,00,53,17.70
2014,07,16,00,54,17.70
2014,07,16,00,55,17.70
2014,07,16,00,56,17.70
2014,07,16,00,57,17.80
2014,07,16,00,58,17.80
2014,07,16,00,59,17.80
2014,07,16,01,00,17.80
2014,07,16,01,01,17.80
2014,07,16,01,02,17.80
2014,07,16,01,03,17.80
2014,07,16,01,04,17.80
2014,07,16,01,05,17.80
2014,07,16,01,06,17.80
2014,07,16,01,07,17.80
2014,07,16,01,08,17.80
2014,07,16,01,09,17.80
2014,07,16,01,10,17.80
2014,07,16,01,11,17.80
2014,07,16,01,12,17.70
2014,07,16,01,13,17.70
2014,07,16,01,14,17.70
2014,07,16,01,15,17.70
2014,07,16,01,16,17.70
2014,07,16,01,17,17.70
2014,07,16,01,18,17.70
2014,07,16,01,19,17.70
2014,07,16,01,20,17.60
2014,07,16,01,21,17.60
2014,07,16,01,22,17.60
2014,07,16,01,23,17.60
2014,07,16,01,24,17.50
2014,07,16,01,25,17.40
2014,07,16,01,26,17.40
2014,07,16,01,27,17.30
2014,07,16,01,28,17.30
2014,07,16,01,29,17.20
2014,07,16,01,30,17.10
2014,07,16,01,31,17.00
2014,07,16,01,32,16.90
2014,07,16,01,33,16.80
2014,07,16,01,34,16.80
2014,07,16,01,35,16.70
2014,07,16,01,36,16.70
2014,07,16,01,37,16.70
2014,07,16,01,38,16.70
2014,07,16,01,39,16.80
2014,07,16,01,40,16.80
2014,07,16,01,41,16.90
2014,07,16,01,42,17.00
2014,07,16,01,43,17.00
2014,07,16,01,44,17.10
2014,07,16,01,45,17.10
2014,07,16,01,46,17.20
2014,07,16,01,47,17.20
2014,07,16,01,48,17.20
2014,07,16,01,49,17.20
2014,07,16,01,50,17.20
2014,07,16,01,51,17.20
2014,07,16,01,52,17.20
2014,07,16,01,53,17.20
2014,07,16,01,54,17.20
2014,07,16,01,55,17.10
2014,07,16,01,56,17.10
2014,07,16,01,57,17.10
2014,07,16,01,58,17.10
2014,07,16,01,59,17.10
2014,07,16,02,00,17.10
2014,07,16,02,01,17.10
2014,07,16,02,02,17.10
2014,07,16,02,03,17.10
2014,07,16,02,04,17.20
2014,07,16,02,05,17.20
2014,07,16,02,06,17.20
2014,07,16,02,07,17.20
2014,07,16,02,08,17.30
2014,07,16,02,09,17.30
2014,07,16,02,10,17.40
2014,07,16,02,11,17.40
2014,07,16,02,12,17.50
2014,07,16,02,13,17.50
2014,07,16,02,14,17.60
2014,07,16,02,15,17.60
2014,07,16,02,16,17.70
2014,07,16,02,17,17.70
2014,07,16,02,18,17.70
2014,07,16,02,19,17.70
2014,07,16,02,20,17.80
2014,07,16,02,21,17.80
2014,07,16,02,22,17.80
2014,07,16,02,23,17.90
2014,07,16,02,24,17.90
2014,07,16,02,25,17.90
2014,07,16,02,26,17.90
2014,07,16,02,27,18.00
2014,07,16,02,28,18.00
2014,07,16,02,29,18.00
2014,07,16,02,30,18.10
2014,07,16,02,31,18.10
2014,07,16,02,32,18.10
2014,07,16,02,33,18.10
2014,07,16,02,34,18.10
2014,07,16,02,35,18.10
2014,07,16,02,36,18.20
2014,07,16,02,37,18.10
2014,07,16,02,38,18.10
2014,07,16,02,39,18.10
2014,07,16,02,40,18.10
2014,07,16,02,41,18.00
2014,07,16,02,42,18.00
2014,07,16,02,43,18.00
2014,07,16,02,44,18.00
2014,07,16,02,45,17.90
2014,07,16,02,46,17.90
2014,07,16,02,47,17.90
2014,07,16,02,48,17.90
2014,07,16,02,49,17.90
2014,07,16,02,50,18.00
2014,07,16,02,51,18.00
2014,07,16,02,52,18.00
2014,07,16,02,53,18.10
2014,07,16,02,54,18.10
2014,07,16,02,55,18.10
2014,07,16,02,56,18.20
2014,07,16,02,57,18.20
2014,07,16,02,58,18.20
2014,07,16,02,59,18.20
2014,07,16,03,00,18.20
2014,07,16,03,01,18.20
2014,07,16,03,02,18.20
2014,07,16,03,03,18.20
2014,07,16,03,04,18.20
2014,07,16,03,05,18.20
2014,07,16,03,06,18.20
2014,07,16,03,07,18.20
2014,07,16,03,08,18.20
2014,07,16,03,09,18.20
2014,07,16,03,10,18.20
2014,07,16,03,11,18.20
2014,07,16,03,12,18.20
2014,07,16,03,13,18.20
2014,07,16,03,14,18.10
2014,07,16,03,15,18.10
2014,07,16,03,16,18.10
2014,07,16,03,17,18.10
2014,07,16,03,18,18.00
2014,07,16,03,19,18.00
2014,07,16,03,20,18.00
2014,07,16,03,21,18.00
2014,07,16,03,22,17.90
2014,07,16,03,23,17.90
2014,07,16,03,24,17.90
2014,07,16,03,25,17.90
2014,07,16,03,26,17.90
2014,07,16,03,27,17.90
2014,07,16,03,28,17.80
2014,07,16,03,29,17.80
2014,07,16,03,30,17.80
2014,07,16,03,31,17.70
2014,07,16,03,32,17.60
2014,07,16,03,33,17.60
2014,07,16,03,34,17.50
2014,07,16,03,35,17.40
2014,07,16,03,36,17.40
2014,07,16,03,37,17.40
2014,07,16,03,38,17.30
2014,07,16,03,39,17.30
2014,07,16,03,40,17.20
2014,07,16,03,41,17.10
2014,07,16,03,42,17.10
2014,07,16,03,43,17.00
2014,07,16,03,44,16.90
2014,07,16,03,45,16.80
2014,07,16,03,46,16.80
2014,07,16,03,47,16.70
2014,07,16,03,48,16.70
2014,07,16,03,49,16.60
2014,07,16,03,50,16.60
2014,07,16,03,51,16.60
2014,07,16,03,52,16.60
2014,07,16,03,53,16.60
2014,07,16,03,54,16.60
2014,07,16,03,55,16.60
2014,07,16,03,56,16.60
2014,07,16,03,57,16.60
2014,07,16,03,58,16.50
2014,07,16,03,59,16.40
2014,07,16,04,00,16.40
2014,07,16,04,01,16.40
2014,07,16,04,02,16.30
2014,07,16,04,03,16.40
2014,07,16,04,04,16.40
2014,07,16,04,05,16.50
2014,07,16,04,06,16.50
2014,07,16,04,07,16.60
2014,07,16,04,08,16.60
2014,07,16,04,09,16.70
2014,07,16,04,10,16.70
2014,07,16,04,11,16.70
2014,07,16,04,12,16.80
2014,07,16,04,13,16.80
2014,07,16,04,14,16.80
2014,07,16,04,15,16.90
2014,07,16,04,16,16.90
2014,07,16,04,17,17.00
2014,07,16,04,18,17.00
2014,07,16,04,19,17.00
2014,07,16,04,20,17.10
2014,07,16,04,21,17.10
2014,07,16,04,22,17.10
2014,07,16,04,23,17.10
2014,07,16,04,24,17.10
2014,07,16,04,25,17.10
2014,07,16,04,26,17.10
2014,07,16,04,27,17.10
2014,07,16,04,28,17.10
2014,07,16,04,29,17.20
2014,07,16,04,30,17.20
2014,07,16,04,31,17.20
2014,07,16,04,32,17.20
2014,07,16,04,33,17.20
2014,07,16,04,34,17.30
2014,07,16,04,35,17.30
2014,07,16,04,36,17.30
2014,07,16,04,37,17.30
2014,07,16,04,38,17.40
2014,07,16,04,39,17.40
2014,07,16,04,40,17.40
2014,07,16,04,41,17.40
2014,07,16,04,42,17.50
2014,07,16,04,43,17.50
2014,07,16,04,44,17.60
2014,07,16,04,45,17.60
2014,07,16,04,46,17.60
2014,07,16,04,47,17.70
2014,07,16,04,48,17.70
2014,07,16,04,49,17.70
2014,07,16,04,50,17.70
2014,07,16,04,51,17.70
2014,07,16,04,52,17.80
2014,07,16,04,53,17.80
2014,07,16,04,54,17.80
2014,07,16,04,55,17.80
2014,07,16,04,56,17.90
2014,07,16,04,57,17.90
2014,07,16,04,58,17.90
2014,07,16,04,59,17.90
2014,07,16,05,00,17.90
2014,07,16,05,01,17.90
2014,07,16,05,02,17.90
2014,07,16,05,03,17.90
2014,07,16,05,04,17.90
2014,07,16,05,05,17.90
2014,07,16,05,06,17.90
2014,07,16,05,07,17.90
2014,07,16,05,08,17.90
2014,07,16,05,09,17.90
2014,07,16,05,10,17.90
2014,07,16,05,11,17.90
2014,07,16,05,12,17.90
2014,07,16,05,13,17.90
2014,07,16,05,14,18.00
2014,07,16,05,15,18.00
2014,07,16,05,16,18.00
2014,07,16,05,17,18.00
2014,07,16,05,18,18.00
2014,07,16,05,19,18.00
2014,07,16,05,20,18.00
2014,07,16,05,21,18.00
2014,07,16,05,22,18.00
2014,07,16,05,23,18.00
2014,07,16,05,24,18.00
2014,07,16,05,25,17.90
2014,07,16,05,26,17.90
2014,07,16,05,27,17.90
2014,07,16,05,28,17.90
2014,07,16,05,29,17.90
2014,07,16,05,30,17.90
2014,07,16,05,31,17.80
2014,07,16,05,32,17.80
2014,07,16,05,33,17.80
2014,07,16,05,34,17.80
2014,07,16,05,35,17.80
2014,07,16,05,36,17.80
2014,07,16,05,37,17.80
2014,07,16,05,38,17.80
2014,07,16,05,39,17.70
2014,07,16,05,40,17.70
2014,07,16,05,41,17.70
2014,07,16,05,42,17.70
2014,07,16,05,43,17.70
2014,07,16,05,44,17.70
2014,07,16,05,45,17.70
2014,07,16,05,46,17.60
2014,07,16,05,47,17.60
2014,07,16,05,48,17.60
2014,07,16,05,49,17.60
2014,07,16,05,50,17.50
2014,07,16,05,51,17.50
2014,07,16,05,52,17.50
2014,07,16,05,53,17.40
2014,07,16,05,54,17.40
2014,07,16,05,55,17.40
2014,07,16,05,56,17.30
2014,07,16,05,57,17.30
2014,07,16,05,58,17.30
2014,07,16,05,59,17.30
2014,07,16,06,00,17.20
2014,07,16,06,01,17.20
2014,07,16,06,02,17.20
2014,07,16,06,03,17.20
2014,07,16,06,04,17.30
2014,07,16,06,05,17.30
2014,07,16,06,06,17.30
2014,07,16,06,07,17.30
2014,07,16,06,08,17.30
2014,07,16,06,09,17.30
2014,07,16,06,10,17.30
2014,07,16,06,11,17.30
2014,07,16,06,12,17.30
2014,07,16,06,13,17.30
2014,07,16,06,14,17.30
2014,07,16,06,15,17.30
2014,07,16,06,16,17.40
2014,07,16,06,17,17.40
2014,07,16,06,18,17.40
2014,07,16,06,19,17.40
2014,07,16,06,20,17.40
2014,07,16,06,21,17.40
2014,07,16,06,22,17.40
2014,07,16,06,23,17.50
2014,07,16,06,24,17.50
2014,07,16,06,25,17.50
2014,07,16,06,26,17.50
2014,07,16,06,27,17.60
2014,07,16,06,28,17.60
2014,07,16,06,29,17.60
2014,07,16,06,30,17.60
2014,07,16,06,31,17.70
2014,07,16,06,32,17.70
2014,07,16,06,33,17.70
2014,07,16,06,34,17.70
2014,07,16,06,35,17.80
2014,07,16,06,36,17.80
2014,07,16,06,37,17.80
2014,07,16,06,38,17.80
2014,07,16,06,39,17.90
2014,07,16,06,40,17.90
2014,07,16,06,41,17.90
2014,07,16,06,42,18.00
2014,07,16,06,43,18.00
2014,07,16,06,44,18.00
2014,07,16,06,45,18.10
2014,07,16,06,46,18.10
2014,07,16,06,47,18.10
2014,07,16,06,48,18.10
2014,07,16,06,49,18.20
2014,07,16,06,50,18.20
2014,07,16,06,51,18.20
2014,07,16,06,52,18.20
2014,07,16,06,53,18.30
2014,07,16,06,54,18.30
2014,07,16,06,55,18.30
2014,07,16,06,56,18.30
2014,07,16,06,57,18.30
2014,07,16,06,58,18.40
2014,07,16,06,59,18.40
2014,07,16,07,00,18.40
2014,07,16,07,01,18.40
2014,07,16,07,02,18.50
2014,07,16,07,03,18.50
2014,07,16,07,04,18.60
2014,07,16,07,05,18.60
2014,07,16,07,06,18.60
2014,07,16,07,07,18.70
2014,07,16,07,08,18.70
2014,07,16,07,09,18.70
2014,07,16,07,10,18.80
2014,07,16,07,11,18.80
2014,07,16,07,12,18.80
2014,07,16,07,13,18.80
2014,07,16,07,14,18.80
2014,07,16,07,15,18.90
2014,07,16,07,16,18.90
2014,07,16,07,17,18.90
2014,07,16,07,18,18.90
2014,07,16,07,19,19.00
2014,07,16,07,20,19.00
2014,07,16,07,21,19.00
2014,07,16,07,22,19.00
2014,07,16,07,23,19.10
2014,07,16,07,24,19.10
2014,07,16,07,25,19.10
2014,07,16,07,26,19.10
2014,07,16,07,27,19.10
2014,07,16,07,28,19.20
2014,07,16,07,29,19.20
2014,07,16,07,30,19.20
2014,07,16,07,31,19.30
2014,07,16,07,32,19.30
2014,07,16,07,33,19.40
2014,07,16,07,34,19.40
2014,07,16,07,35,19.40
2014,07,16,07,36,19.40
2014,07,16,07,37,19.40
2014,07,16,07,38,19.50
2014,07,16,07,39,19.50
2014,07,16,07,40,19.60
2014,07,16,07,41,19.60
2014,07,16,07,42,19.60
2014,07,16,07,43,19.70
2014,07,16,07,44,19.70
2014,07,16,07,45,19.70
2014,07,16,07,46,19.80
2014,07,16,07,47,19.80
2014,07,16,07,48,19.70
2014,07,16,07,49,19.70
2014,07,16,07,50,19.80
2014,07,16,07,51,19.80
2014,07,16,07,52,19.80
2014,07,16,07,53,19.80
2014,07,16,07,54,19.80
2014,07,16,07,55,19.80
2014,07,16,07,56,19.80
2014,07,16,07,57,19.80
2014,07,16,07,58,19.80
2014,07,16,07,59,19.80
2014,07,16,08,00,19.90
2014,07,16,08,01,19.90
2014,07,16,08,02,19.90
2014,07,16,08,03,19.90
2014,07,16,08,04,19.90
2014,07,16,08,05,19.90
2014,07,16,08,06,19.90
2014,07,16,08,07,20.00
2014,07,16,08,08,20.00
2014,07,16,08,09,20.10
2014,07,16,08,10,20.10
2014,07,16,08,11,20.20
2014,07,16,08,12,20.20
2014,07,16,08,13,20.20
2014,07,16,08,14,20.20
2014,07,16,08,15,20.30
2014,07,16,08,16,20.30
2014,07,16,08,17,20.30
2014,07,16,08,18,20.30
2014,07,16,08,19,20.40
2014,07,16,08,20,20.40
2014,07,16,08,21,20.40
2014,07,16,08,22,20.40
2014,07,16,08,23,20.40
2014,07,16,08,24,20.40
2014,07,16,08,25,20.40
2014,07,16,08,26,20.50
2014,07,16,08,27,20.50
2014,07,16,08,28,20.50
2014,07,16,08,29,20.50
2014,07,16,08,30,20.50
2014,07,16,08,31,20.50
2014,07,16,08,32,20.50
2014,07,16,08,33,20.40
2014,07,16,08,34,20.40
2014,07,16,08,35,20.40
2014,07,16,08,36,20.40
2014,07,16,08,37,20.40
2014,07,16,08,38,20.40
2014,07,16,08,39,20.40
2014,07,16,08,40,20.40
2014,07,16,08,41,20.40
2014,07,16,08,42,20.40
2014,07,16,08,43,20.40
2014,07,16,08,44,20.40
2014,07,16,08,45,20.40
2014,07,16,08,46,20.40
2014,07,16,08,47,20.40
2014,07,16,08,48,20.40
2014,07,16,08,49,20.40
2014,07,16,08,50,20.50
2014,07,16,08,51,20.50
2014,07,16,08,52,20.60
2014,07,16,08,53,20.60
2014,07,16,08,54,20.60
2014,07,16,08,55,20.50
2014,07,16,08,56,20.50
2014,07,16,08,57,20.50
2014,07,16,08,58,20.50
2014,07,16,08,59,20.50
2014,07,16,09,00,20.50
2014,07,16,09,01,20.40
2014,07,16,09,02,20.40
2014,07,16,09,03,20.40
2014,07,16,09,04,20.40
2014,07,16,09,05,20.40
2014,07,16,09,06,20.50
2014,07,16,09,07,20.60
2014,07,16,09,08,20.60
2014,07,16,09,09,20.50
2014,07,16,09,10,20.50
2014,07,16,09,11,20.50
2014,07,16,09,12,20.60
2014,07,16,09,13,20.60
2014,07,16,09,14,20.60
2014,07,16,09,15,20.70
2014,07,16,09,16,20.80
2014,07,16,09,17,20.80
2014,07,16,09,18,20.80
2014,07,16,09,19,20.80
2014,07,16,09,20,20.80
2014,07,16,09,21,20.80
2014,07,16,09,22,20.80
2014,07,16,09,23,20.80
2014,07,16,09,24,20.80
2014,07,16,09,25,20.80
2014,07,16,09,26,20.80
2014,07,16,09,27,20.90
2014,07,16,09,28,20.90
2014,07,16,09,29,20.90
2014,07,16,09,30,20.90
2014,07,16,09,31,20.90
2014,07,16,09,32,21.00
2014,07,16,09,33,21.00
2014,07,16,09,34,21.10
2014,07,16,09,35,21.10
2014,07,16,09,36,21.20
2014,07,16,09,37,21.30
2014,07,16,09,38,21.30
2014,07,16,09,39,21.30
2014,07,16,09,40,21.30
2014,07,16,09,41,21.20
2014,07,16,09,42,21.20
2014,07,16,09,43,21.20
2014,07,16,09,44,21.20
2014,07,16,09,45,21.20
2014,07,16,09,46,21.20
2014,07,16,09,47,21.20
2014,07,16,09,48,21.30
2014,07,16,09,49,21.30
2014,07,16,09,50,21.40
2014,07,16,09,51,21.30
2014,07,16,09,52,21.30
2014,07,16,09,53,21.30
2014,07,16,09,54,21.40
2014,07,16,09,55,21.40
2014,07,16,09,56,21.40
2014,07,16,09,57,21.40
2014,07,16,09,58,21.40
2014,07,16,09,59,21.40
2014,07,16,10,00,21.30
2014,07,16,10,01,21.30
2014,07,16,10,02,21.30
2014,07,16,10,03,21.40
2014,07,16,10,04,21.50
2014,07,16,10,05,21.50
2014,07,16,10,06,21.50
2014,07,16,10,07,21.60
2014,07,16,10,08,21.60
2014,07,16,10,09,21.70
2014,07,16,10,10,21.70
2014,07,16,10,11,21.70
2014,07,16,10,12,21.70
2014,07,16,10,13,21.70
2014,07,16,10,14,21.70
2014,07,16,10,15,21.70
2014,07,16,10,16,21.70
2014,07,16,10,17,21.70
2014,07,16,10,18,21.70
2014,07,16,10,19,21.80
2014,07,16,10,20,21.80
2014,07,16,10,21,21.80
2014,07,16,10,22,21.80
2014,07,16,10,23,21.80
2014,07,16,10,24,21.80
2014,07,16,10,25,21.70
2014,07,16,10,26,21.70
2014,07,16,10,27,21.70
2014,07,16,10,28,21.60
2014,07,16,10,29,21.60
2014,07,16,10,30,21.60
2014,07,16,10,31,21.60
2014,07,16,10,32,21.70
2014,07,16,10,33,21.80
2014,07,16,10,34,21.80
2014,07,16,10,35,21.90
2014,07,16,10,36,21.90
2014,07,16,10,37,21.80
2014,07,16,10,38,21.80
2014,07,16,10,39,21.80
2014,07,16,10,40,21.80
2014,07,16,10,41,21.80
2014,07,16,10,42,21.80
2014,07,16,10,43,21.80
2014,07,16,10,44,21.80
2014,07,16,10,45,21.80
2014,07,16,10,46,21.80
2014,07,16,10,47,21.80
2014,07,16,10,48,21.90
2014,07,16,10,49,21.90
2014,07,16,10,50,22.00
2014,07,16,10,51,22.00
2014,07,16,10,52,22.00
2014,07,16,10,53,22.00
2014,07,16,10,54,22.00
2014,07,16,10,55,21.90
2014,07,16,10,56,21.90
2014,07,16,10,57,21.90
2014,07,16,10,58,21.90
2014,07,16,10,59,21.80
2014,07,16,11,00,21.80
2014,07,16,11,01,21.80
2014,07,16,11,02,21.80
2014,07,16,11,03,21.80
2014,07,16,11,04,21.90
2014,07,16,11,05,21.90
2014,07,16,11,06,21.90
2014,07,16,11,07,21.90
2014,07,16,11,08,21.90
2014,07,16,11,09,21.90
2014,07,16,11,10,21.80
2014,07,16,11,11,21.90
2014,07,16,11,12,21.90
2014,07,16,11,13,22.00
2014,07,16,11,14,22.10
2014,07,16,11,15,22.10
2014,07,16,11,16,22.20
2014,07,16,11,17,22.20
2014,07,16,11,18,22.20
2014,07,16,11,19,22.20
2014,07,16,11,20,22.10
2014,07,16,11,21,22.10
2014,07,16,11,22,22.10
2014,07,16,11,23,22.20
2014,07,16,11,24,22.20
2014,07,16,11,25,22.30
2014,07,16,11,26,22.30
2014,07,16,11,27,22.30
2014,07,16,11,28,22.20
2014,07,16,11,29,22.20
2014,07,16,11,30,22.10
2014,07,16,11,31,22.20
2014,07,16,11,32,22.20
2014,07,16,11,33,22.20
2014,07,16,11,34,22.30
2014,07,16,11,35,22.40
2014,07,16,11,36,22.50
2014,07,16,11,37,22.60
2014,07,16,11,38,22.70
2014,07,16,11,39,22.70
2014,07,16,11,40,22.70
2014,07,16,11,41,22.70
2014,07,16,11,42,22.70
2014,07,16,11,43,22.70
2014,07,16,11,44,22.70
2014,07,16,11,45,22.70
2014,07,16,11,46,22.60
2014,07,16,11,47,22.60
2014,07,16,11,48,22.60
2014,07,16,11,49,22.60
2014,07,16,11,50,22.60
2014,07,16,11,51,22.70
2014,07,16,11,52,22.70
2014,07,16,11,53,22.80
2014,07,16,11,54,22.90
2014,07,16,11,55,22.90
2014,07,16,11,56,22.90
2014,07,16,11,57,22.90
2014,07,16,11,58,23.00
2014,07,16,11,59,23.00
2014,07,16,12,00,22.90
2014,07,16,12,01,22.90
2014,07,16,12,02,22.90
2014,07,16,12,03,22.90
2014,07,16,12,04,22.80
2014,07,16,12,05,22.80
2014,07,16,12,06,22.90
2014,07,16,12,07,23.00
2014,07,16,12,08,23.10
2014,07,16,12,09,23.20
2014,07,16,12,10,23.30
2014,07,16,12,11,23.40
2014,07,16,12,12,23.60
2014,07,16,12,13,23.60
2014,07,16,12,14,23.70
2014,07,16,12,15,23.80
2014,07,16,12,16,23.90
2014,07,16,12,17,24.00
2014,07,16,12,18,24.10
2014,07,16,12,19,24.20
2014,07,16,12,20,24.40
2014,07,16,12,21,24.50
2014,07,16,12,22,24.60
2014,07,16,12,23,24.80
2014,07,16,12,24,24.90
2014,07,16,12,25,24.90
2014,07,16,12,26,24.90
2014,07,16,12,27,24.90
2014,07,16,12,28,24.90
2014,07,16,12,29,24.80
2014,07,16,12,30,24.80
2014,07,16,12,31,24.80
2014,07,16,12,32,24.80
2014,07,16,12,33,24.70
2014,07,16,12,34,24.60
2014,07,16,12,35,24.50
2014,07,16,12,36,24.40
2014,07,16,12,37,24.30
2014,07,16,12,38,24.30
2014,07,16,12,39,24.20
2014,07,16,12,40,24.20
2014,07,16,12,41,24.10
2014,07,16,12,42,24.10
2014,07,16,12,43,24.20
2014,07,16,12,44,24.20
2014,07,16,12,45,24.30
2014,07,16,12,46,24.30
2014,07,16,12,47,24.30
2014,07,16,12,48,24.30
2014,07,16,12,49,24.20
2014,07,16,12,50,24.10
2014,07,16,12,51,24.10
2014,07,16,12,52,24.00
2014,07,16,12,53,24.00
2014,07,16,12,54,23.90
2014,07,16,12,55,23.90
2014,07,16,12,56,23.90
2014,07,16,12,57,23.90
2014,07,16,12,58,23.90
2014,07,16,12,59,23.90
2014,07,16,13,00,23.90
2014,07,16,13,01,23.90
2014,07,16,13,02,23.90
2014,07,16,13,03,23.90
2014,07,16,13,04,23.90
2014,07,16,13,05,24.00
2014,07,16,13,06,24.00
2014,07,16,13,07,24.10
2014,07,16,13,08,24.10
2014,07,16,13,09,24.20
2014,07,16,13,10,24.30
2014,07,16,13,11,24.40
2014,07,16,13,12,24.40
2014,07,16,13,13,24.50
2014,07,16,13,14,24.50
2014,07,16,13,15,24.60
2014,07,16,13,16,24.70
2014,07,16,13,17,24.80
2014,07,16,13,18,24.80
2014,07,16,13,19,24.70
2014,07,16,13,20,24.70
2014,07,16,13,21,24.50
2014,07,16,13,22,24.50
2014,07,16,13,23,24.40
2014,07,16,13,24,24.40
2014,07,16,13,25,24.30
2014,07,16,13,26,24.30
2014,07,16,13,27,24.20
2014,07,16,13,28,24.20
2014,07,16,13,29,24.10
2014,07,16,13,30,24.00
2014,07,16,13,31,23.90
2014,07,16,13,32,23.90
2014,07,16,13,33,23.80
2014,07,16,13,34,23.80
2014,07,16,13,35,23.80
2014,07,16,13,36,23.80
2014,07,16,13,37,23.80
2014,07,16,13,38,23.70
2014,07,16,13,39,23.70
2014,07,16,13,40,23.60
2014,07,16,13,41,23.60
2014,07,16,13,42,23.50
2014,07,16,13,43,23.50
2014,07,16,13,44,23.40
2014,07,16,13,45,23.30
2014,07,16,13,46,23.30
2014,07,16,13,47,23.20
2014,07,16,13,48,23.10
2014,07,16,13,49,23.10
2014,07,16,13,50,23.00
2014,07,16,13,51,22.90
2014,07,16,13,52,22.90
2014,07,16,13,53,22.80
2014,07,16,13,54,22.90
2014,07,16,13,55,22.90
2014,07,16,13,56,22.90
2014,07,16,13,57,22.90
2014,07,16,13,58,22.90
2014,07,16,13,59,22.90
2014,07,16,14,00,23.00
2014,07,16,14,01,23.00
2014,07,16,14,02,23.10
2014,07,16,14,03,23.10
2014,07,16,14,04,23.20
2014,07,16,14,05,23.20
2014,07,16,14,06,23.30
2014,07,16,14,07,23.30
2014,07,16,14,08,23.30
2014,07,16,14,09,23.30
2014,07,16,14,10,23.30
2014,07,16,14,11,23.30
2014,07,16,14,12,23.30
2014,07,16,14,13,23.30
2014,07,16,14,14,23.30
2014,07,16,14,15,23.30
2014,07,16,14,16,23.30
2014,07,16,14,17,23.30
2014,07,16,14,18,23.40
2014,07,16,14,19,23.40
2014,07,16,14,20,23.40
2014,07,16,14,21,23.40
2014,07,16,14,22,23.50
2014,07,16,14,23,23.60
2014,07,16,14,24,23.60
2014,07,16,14,25,23.70
2014,07,16,14,26,23.70
2014,07,16,14,27,23.80
2014,07,16,14,28,23.80
2014,07,16,14,29,23.90
2014,07,16,14,30,23.80
2014,07,16,14,31,23.90
2014,07,16,14,32,23.90
2014,07,16,14,33,24.00
2014,07,16,14,34,24.10
2014,07,16,14,35,24.20
2014,07,16,14,36,24.30
2014,07,16,14,37,24.40
2014,07,16,14,38,24.50
2014,07,16,14,39,24.50
2014,07,16,14,40,24.40
2014,07,16,14,41,24.40
2014,07,16,14,42,24.30
2014,07,16,14,43,24.30
2014,07,16,14,44,24.30
2014,07,16,14,45,24.30
2014,07,16,14,46,24.20
2014,07,16,14,47,24.20
2014,07,16,14,48,24.20
2014,07,16,14,49,24.10
2014,07,16,14,50,24.10
2014,07,16,14,51,24.00
2014,07,16,14,52,24.00
2014,07,16,14,53,24.10
2014,07,16,14,54,24.10
2014,07,16,14,55,24.10
2014,07,16,14,56,24.20
2014,07,16,14,57,24.20
2014,07,16,14,58,24.30
2014,07,16,14,59,24.30
2014,07,16,15,00,24.30
2014,07,16,15,01,24.30
2014,07,16,15,02,24.30
2014,07,16,15,03,24.20
2014,07,16,15,04,24.10
2014,07,16,15,05,24.10
2014,07,16,15,06,24.10
2014,07,16,15,07,24.00
2014,07,16,15,08,23.90
2014,07,16,15,09,23.90
2014,07,16,15,10,23.90
2014,07,16,15,11,23.80
2014,07,16,15,12,23.70
2014,07,16,15,13,23.70
2014,07,16,15,14,23.70
2014,07,16,15,15,23.60
2014,07,16,15,16,23.60
2014,07,16,15,17,23.50
2014,07,16,15,18,23.40
2014,07,16,15,19,23.40
2014,07,16,15,20,23.30
2014,07,16,15,21,23.30
2014,07,16,15,22,23.20
2014,07,16,15,23,23.20
2014,07,16,15,24,23.20
2014,07,16,15,25,23.30
2014,07,16,15,26,23.30
2014,07,16,15,27,23.30
2014,07,16,15,28,23.40
2014,07,16,15,29,23.50
2014,07,16,15,30,23.50
2014,07,16,15,31,23.60
2014,07,16,15,32,23.70
2014,07,16,15,33,23.60
2014,07,16,15,34,23.60
2014,07,16,15,35,23.50
2014,07,16,15,36,23.40
2014,07,16,15,37,23.40
2014,07,16,15,38,23.30
2014,07,16,15,39,23.30
2014,07,16,15,40,23.30
2014,07,16,15,41,23.30
2014,07,16,15,42,23.40
2014,07,16,15,43,23.40
2014,07,16,15,44,23.40
2014,07,16,15,45,23.40
2014,07,16,15,46,23.40
2014,07,16,15,47,23.40
2014,07,16,15,48,23.40
2014,07,16,15,49,23.40
2014,07,16,15,50,23.50
2014,07,16,15,51,23.50
2014,07,16,15,52,23.60
2014,07,16,15,53,23.60
2014,07,16,15,54,23.70
2014,07,16,15,55,23.80
2014,07,16,15,56,23.80
2014,07,16,15,57,23.80
2014,07,16,15,58,23.90
2014,07,16,15,59,24.00
2014,07,16,16,00,24.00
2014,07,16,16,01,24.10
2014,07,16,16,02,24.20
2014,07,16,16,03,24.40
2014,07,16,16,04,24.50
2014,07,16,16,05,24.60
2014,07,16,16,06,24.60
2014,07,16,16,07,24.60
2014,07,16,16,08,24.70
2014,07,16,16,09,24.70
2014,07,16,16,10,24.60
2014,07,16,16,11,24.60
2014,07,16,16,12,24.50
2014,07,16,16,13,24.40
2014,07,16,16,14,24.30
2014,07,16,16,15,24.20
2014,07,16,16,16,24.10
2014,07,16,16,17,24.00
2014,07,16,16,18,23.90
2014,07,16,16,19,23.90
2014,07,16,16,20,24.00
2014,07,16,16,21,24.00
2014,07,16,16,22,24.00
2014,07,16,16,23,24.00
2014,07,16,16,24,24.10
2014,07,16,16,25,24.10
2014,07,16,16,26,24.10
2014,07,16,16,27,24.20
2014,07,16,16,28,24.20
2014,07,16,16,29,24.20
2014,07,16,16,30,24.30
2014,07,16,16,31,24.40
2014,07,16,16,32,24.50
2014,07,16,16,33,24.50
2014,07,16,16,34,24.60
2014,07,16,16,35,24.70
2014,07,16,16,36,24.70
2014,07,16,16,37,24.80
2014,07,16,16,38,24.80
2014,07,16,16,39,24.80
2014,07,16,16,40,24.80
2014,07,16,16,41,24.80
2014,07,16,16,42,24.80
2014,07,16,16,43,24.80
2014,07,16,16,44,24.80
2014,07,16,16,45,24.80
2014,07,16,16,46,24.90
2014,07,16,16,47,24.90
2014,07,16,16,48,24.80
2014,07,16,16,49,24.80
2014,07,16,16,50,24.80
2014,07,16,16,51,24.80
2014,07,16,16,52,24.90
2014,07,16,16,53,24.90
2014,07,16,16,54,24.90
2014,07,16,16,55,25.00
2014,07,16,16,56,25.10
2014,07,16,16,57,25.10
2014,07,16,16,58,25.20
2014,07,16,16,59,25.20
2014,07,16,17,00,25.20
2014,07,16,17,01,25.30
2014,07,16,17,02,25.30
2014,07,16,17,03,25.30
2014,07,16,17,04,25.30
2014,07,16,17,05,25.40
2014,07,16,17,06,25.40
2014,07,16,17,07,25.50
2014,07,16,17,08,25.50
2014,07,16,17,09,25.60
2014,07,16,17,10,25.60
2014,07,16,17,11,25.60
2014,07,16,17,12,25.50
2014,07,16,17,13,25.50
2014,07,16,17,14,25.50
2014,07,16,17,15,25.40
2014,07,16,17,16,25.40
2014,07,16,17,17,25.30
2014,07,16,17,18,25.30
2014,07,16,17,19,25.40